| time (UTC) | temp F | wind direction | speed knots | gust knots | rain 1hr in | rain 24hr in | rain mn in | humidity % | barometer mb |
| 20260508211413 | 51 | 136 | 1.7 | 4.3 | 0.00 | 0.10 | 0.10 | 79 | 1010.9 |
| 20260508210413 | 51 | 137 | 1.7 | 6.1 | 0.00 | 0.10 | 0.10 | 83 | 1011.2 |
| 20260508205413 | 49 | 153 | 1.7 | 5.2 | 0.00 | 0.10 | 0.10 | 87 | 1011.5 |
| 20260508204412 | 49 | 126 | 1.7 | 4.3 | 0.02 | 0.10 | 0.10 | 89 | 1011.6 |
| 20260508203410 | 48 | 216 | 1.7 | 2.6 | 0.02 | 0.09 | 0.09 | 86 | 1011.8 |
| 20260508202409 | 49 | 7 | 1.7 | 2.6 | 0.02 | 0.09 | 0.09 | 83 | 1011.8 |
| 20260508201408 | 50 | 301 | 0.0 | 0.9 | 0.00 | 0.09 | 0.09 | 78 | 1011.4 |
| 20260508200408 | 51 | 27 | 0.9 | 3.5 | 0.00 | 0.09 | 0.09 | 72 | 1011.2 |
| 20260508195406 | 51 | 57 | 2.6 | 4.3 | 0.02 | 0.09 | 0.09 | 70 | 1011.4 |
| 20260508194406 | 53 | 0 | 0.9 | 3.5 | 0.00 | 0.08 | 0.08 | 70 | 1011.1 |
| 20260508193405 | 55 | 60 | 4.3 | 5.2 | 0.00 | 0.08 | 0.08 | 67 | 1011.4 |
| 20260508192404 | 53 | 330 | 2.6 | 3.5 | 0.00 | 0.08 | 0.08 | 71 | 1011.5 |
| 20260508191359 | 50 | 311 | 0.9 | 2.6 | 0.00 | 0.08 | 0.08 | 72 | 1011.7 |
| 20260508190358 | 50 | 55 | 1.7 | 3.5 | 0.00 | 0.08 | 0.08 | 76 | 1011.8 |
| 20260508185358 | 51 | 327 | 3.5 | 7.8 | 0.00 | 0.08 | 0.08 | 77 | 1011.8 |
| 20260508184353 | 51 | 139 | 0.0 | 4.3 | 0.00 | 0.08 | 0.08 | 75 | 1011.7 |
| 20260508183351 | 50 | 348 | 3.5 | 5.2 | 0.00 | 0.08 | 0.08 | 81 | 1011.9 |
| 20260508182350 | 50 | 96 | 4.3 | 4.3 | 0.00 | 0.08 | 0.08 | 81 | 1012.0 |
| 20260508181349 | 50 | 36 | 2.6 | 7.0 | 0.00 | 0.08 | 0.08 | 85 | 1012.3 |
| 20260508180348 | 50 | 257 | 2.6 | 2.6 | 0.00 | 0.08 | 0.08 | 86 | 1012.0 |
| 20260508175347 | 47 | 338 | 3.5 | 7.0 | 0.02 | 0.08 | 0.08 | 90 | 1012.5 |
| 20260508174342 | 48 | 282 | 5.2 | 5.2 | 0.00 | 0.08 | 0.08 | 84 | 1012.4 |
| 20260508173342 | 50 | 275 | 3.5 | 4.3 | 0.00 | 0.08 | 0.08 | 83 | 1012.4 |
| 20260508172341 | 49 | 290 | 0.0 | 7.8 | 0.00 | 0.08 | 0.08 | 87 | 1012.1 |
| 20260508171339 | 48 | 291 | 3.5 | 4.3 | 0.00 | 0.08 | 0.08 | 91 | 1012.1 |
| 20260508170334 | 46 | 350 | 2.6 | 3.5 | 0.02 | 0.08 | 0.08 | 95 | 1012.6 |
| 20260508165333 | 45 | 8 | 1.7 | 4.3 | 0.00 | 0.07 | 0.07 | 97 | 1012.7 |
| 20260508164331 | 44 | 19 | 2.6 | 4.3 | 0.00 | 0.07 | 0.07 | 97 | 1012.6 |
| 20260508163327 | 44 | 356 | 3.5 | 3.5 | 0.00 | 0.07 | 0.07 | 97 | 1012.6 |
| 20260508162325 | 43 | 6 | 0.9 | 2.6 | 0.02 | 0.07 | 0.07 | 97 | 1012.6 |
| 20260508161325 | 44 | 19 | 1.7 | 2.6 | 0.19 | 0.07 | 0.07 | 95 | 1012.8 |
| 20260508160322 | 45 | 292 | 7.0 | 9.6 | 0.05 | 0.04 | 0.04 | 87 | 1012.6 |
| 20260508155321 | 46 | 10 | 2.6 | 4.3 | 0.00 | 0.03 | 0.03 | 83 | 1012.0 |
| 20260508154315 | 49 | 278 | 1.7 | 3.5 | 0.00 | 0.03 | 0.03 | 81 | 1011.8 |
| 20260508153314 | 47 | 309 | 5.2 | 5.2 | 0.00 | 0.03 | 0.03 | 85 | 1011.8 |
| 20260508152312 | 46 | 29 | 1.7 | 3.5 | 0.00 | 0.03 | 0.03 | 85 | 1011.7 |
| 20260508151311 | 45 | 309 | 3.5 | 7.8 | 0.00 | 0.03 | 0.03 | 84 | 1012.1 |
| 20260508150310 | 46 | 327 | 3.5 | 8.7 | 0.00 | 0.03 | 0.03 | 84 | 1012.1 |
| 20260508145308 | 47 | 220 | 0.0 | 5.2 | 0.00 | 0.03 | 0.03 | 86 | 1012.0 |
| 20260508144303 | 47 | 119 | 3.5 | 7.8 | 0.00 | 0.03 | 0.03 | 83 | 1012.1 |
| 20260508143303 | 46 | 215 | 1.7 | 6.1 | 0.00 | 0.03 | 0.03 | 88 | 1012.1 |
| 20260508142306 | 45 | 304 | 1.7 | 8.7 | 0.00 | 0.03 | 0.03 | 88 | 1012.0 |
| 20260508141302 | 43 | 87 | 0.9 | 4.3 | 0.00 | 0.03 | 0.03 | 93 | 1012.3 |
| 20260508140302 | 43 | 208 | 4.3 | 4.3 | 0.00 | 0.03 | 0.03 | 93 | 1012.0 |
| 20260508135300 | 42 | 263 | 0.9 | 2.6 | 0.00 | 0.03 | 0.03 | 94 | 1012.4 |
| 20260508134259 | 42 | 202 | 4.3 | 6.1 | 0.00 | 0.03 | 0.03 | 96 | 1012.1 |
| 20260508133259 | 40 | 178 | 4.3 | 5.2 | 0.00 | 0.03 | 0.03 | 99 | 1012.1 |
| 20260508132300 | 39 | 95 | 2.6 | 5.2 | 0.00 | 0.03 | 0.03 | 99 | 1012.5 |
| 20260508131257 | 38 | 170 | 2.6 | 4.3 | 0.00 | 0.03 | 0.03 | 99 | 1012.7 |
| 20260508130258 | 39 | 103 | 1.7 | 3.5 | 0.02 | 0.03 | 0.03 | 99 | 1012.6 |
| 20260508125255 | 38 | 112 | 2.6 | 3.5 | 0.02 | 0.03 | 0.03 | 99 | 1012.8 |
| 20260508124250 | 38 | 164 | 0.9 | 3.5 | 0.00 | 0.02 | 0.02 | 99 | 1012.4 |
| 20260508123246 | 38 | 96 | 2.6 | 4.3 | 0.00 | 0.02 | 0.02 | 99 | 1012.4 |
| 20260508122245 | 38 | 94 | 0.9 | 2.6 | 0.00 | 0.02 | 0.02 | 99 | 1012.5 |
| 20260508121241 | 37 | 89 | 1.7 | 2.6 | 0.00 | 0.02 | 0.02 | 99 | 1012.5 |
| 20260508120236 | 37 | 109 | 3.5 | 3.5 | 0.00 | 0.02 | 0.02 | 99 | 1012.4 |
| 20260508115231 | 37 | 133 | 3.5 | 4.3 | 0.00 | 0.02 | 0.02 | 99 | 1012.5 |
| 20260508114229 | 37 | 125 | 0.9 | 3.5 | 0.00 | 0.02 | 0.02 | 99 | 1012.3 |
| 20260508113225 | 36 | 130 | 2.6 | 2.6 | 0.00 | 0.02 | 0.02 | 99 | 1012.3 |
| 20260508112223 | 36 | 110 | 1.7 | 2.6 | 0.00 | 0.02 | 0.02 | 99 | 1012.3 |
| 20260508111218 | 35 | 76 | 1.7 | 2.6 | 0.00 | 0.02 | 0.02 | 99 | 1012.4 |
| 20260508110218 | 33 | 79 | 1.7 | 2.6 | 0.00 | 0.02 | 0.02 | 99 | 1012.3 |
| 20260508105214 | 34 | 78 | 4.3 | 4.3 | 0.00 | 0.02 | 0.02 | 99 | 1012.1 |
| 20260508104214 | 34 | 80 | 3.5 | 4.3 | 0.00 | 0.02 | 0.02 | 99 | 1012.0 |
| 20260508103209 | 32 | 83 | 3.5 | 5.2 | 0.00 | 0.02 | 0.02 | 99 | 1012.0 |
| 20260508102204 | 32 | 82 | 3.5 | 4.3 | 0.00 | 0.02 | 0.02 | 99 | 1012.1 |
| 20260508101205 | 32 | 83 | 4.3 | 5.2 | 0.00 | 0.02 | 0.02 | 99 | 1012.0 |
| 20260508100200 | 31 | 79 | 3.5 | 5.2 | 0.00 | 0.02 | 0.02 | 99 | 1012.1 |
| 20260508095159 | 31 | 80 | 5.2 | 5.2 | 0.00 | 0.02 | 0.02 | 99 | 1011.7 |
| 20260508094158 | 30 | 77 | 3.5 | 5.2 | 0.00 | 0.02 | 0.02 | 99 | 1011.9 |
| 20260508093153 | 30 | 70 | 4.3 | 5.2 | 0.00 | 0.02 | 0.02 | 99 | 1011.9 |
| 20260508092149 | 31 | 66 | 4.3 | 5.2 | 0.00 | 0.02 | 0.02 | 99 | 1011.9 |
| 20260508091148 | 31 | 52 | 1.7 | 4.3 | 0.00 | 0.02 | 0.02 | 99 | 1012.1 |
| 20260508090143 | 31 | 58 | 3.5 | 4.3 | 0.00 | 0.02 | 0.02 | 99 | 1012.3 |
| 20260508085143 | 32 | 80 | 2.6 | 4.3 | 0.00 | 0.02 | 0.02 | 99 | 1012.0 |
| 20260508084142 | 32 | 73 | 3.5 | 5.2 | 0.00 | 0.02 | 0.02 | 99 | 1011.7 |
| 20260508083137 | 32 | 79 | 3.5 | 4.3 | 0.00 | 0.02 | 0.02 | 99 | 1011.9 |
| 20260508082135 | 32 | 68 | 3.5 | 4.3 | 0.00 | 0.02 | 0.02 | 99 | 1012.0 |
| 20260508081135 | 32 | 71 | 3.5 | 3.5 | 0.00 | 0.02 | 0.02 | 99 | 1012.0 |
| 20260508080131 | 32 | 73 | 3.5 | 4.3 | 0.00 | 0.02 | 0.02 | 99 | 1011.8 |
| 20260508075129 | 32 | 75 | 2.6 | 3.5 | 0.00 | 0.02 | 0.02 | 99 | 1011.8 |
| 20260508074124 | 32 | 81 | 2.6 | 4.3 | 0.00 | 0.02 | 0.02 | 99 | 1011.7 |
| 20260508073119 | 33 | 85 | 1.7 | 4.3 | 0.02 | 0.02 | 0.02 | 99 | 1011.8 |
| 20260508072118 | 33 | 60 | 3.5 | 3.5 | 0.00 | 0.02 | 0.02 | 99 | 1011.8 |
| 20260508071113 | 32 | 85 | 2.6 | 3.5 | 0.00 | 0.02 | 0.02 | 99 | 1011.9 |
| 20260508070109 | 32 | 63 | 2.6 | 3.5 | 0.00 | 0.02 | 0.02 | 99 | 1012.0 |
| 20260508065110 | 33 | 77 | 1.7 | 4.3 | 0.00 | 0.02 | 0.02 | 99 | 1011.9 |
| 20260508064105 | 35 | 79 | 2.6 | 3.5 | 0.00 | 0.02 | 0.02 | 99 | 1011.9 |
| 20260508063100 | 35 | 83 | 2.6 | 4.3 | 0.00 | 0.02 | 0.02 | 99 | 1011.7 |
| 20260508062059 | 34 | 81 | 4.3 | 4.3 | 0.00 | 0.02 | 0.02 | 99 | 1011.9 |
| 20260508061055 | 35 | 83 | 1.7 | 3.5 | 0.00 | 0.02 | 0.02 | 99 | 1011.6 |
| 20260508060054 | 35 | 94 | 2.6 | 3.5 | 0.00 | 0.02 | 0.02 | 99 | 1011.6 |
| 20260508055053 | 35 | 87 | 2.6 | 3.5 | 0.00 | 0.02 | 0.02 | 99 | 1011.6 |
| 20260508054053 | 35 | 63 | 2.6 | 3.5 | 0.00 | 0.02 | 0.02 | 99 | 1011.6 |
| 20260508053047 | 36 | 87 | 2.6 | 3.5 | 0.00 | 0.02 | 0.02 | 99 | 1011.6 |
| 20260508052047 | 36 | 79 | 3.5 | 4.3 | 0.00 | 0.02 | 0.02 | 99 | 1011.7 |
| 20260508051044 | 35 | 93 | 3.5 | 4.3 | 0.00 | 0.02 | 0.02 | 99 | 1011.7 |
| 20260508050044 | 36 | 88 | 4.3 | 5.2 | 0.00 | 0.02 | 0.02 | 99 | 1011.5 |
| 20260508045043 | 37 | 84 | 2.6 | 3.5 | 0.00 | 0.02 | 0.02 | 99 | 1011.5 |
| 20260508044042 | 37 | 94 | 2.6 | 3.5 | 0.00 | 0.02 | 0.02 | 99 | 1011.6 |
| 20260508043037 | 37 | 91 | 2.6 | 3.5 | 0.00 | 0.02 | 0.02 | 99 | 1011.5 |
| 20260508042036 | 38 | 77 | 3.5 | 5.2 | 0.00 | 0.02 | 0.02 | 99 | 1012.0 |
| 20260508041035 | 38 | 70 | 2.6 | 5.2 | 0.09 | 0.02 | 0.02 | 99 | 1012.0 |
| 20260508040035 | 38 | 62 | 3.5 | 4.3 | 0.17 | 0.00 | 0.00 | 99 | 1012.3 |
| 20260508035035 | 38 | 119 | 0.9 | 3.5 | 0.05 | 0.16 | 0.16 | 99 | 1012.5 |
| 20260508034034 | 38 | 52 | 2.6 | 3.5 | 0.05 | 0.15 | 0.15 | 99 | 1012.4 |
| 20260508033030 | 38 | 102 | 1.7 | 2.6 | 0.12 | 0.14 | 0.14 | 98 | 1012.3 |
| 20260508032030 | 39 | 81 | 1.7 | 5.2 | 0.26 | 0.11 | 0.11 | 97 | 1011.8 |
| 20260508031028 | 40 | 23 | 2.6 | 7.8 | 0.33 | 0.07 | 0.07 | 96 | 1012.1 |
| 20260508030023 | 42 | 66 | 4.3 | 5.2 | 0.07 | 0.01 | 0.01 | 90 | 1011.8 |
| 20260508025022 | 44 | 357 | 1.7 | 5.2 | 0.00 | 0.00 | 0.00 | 79 | 1011.1 |
| 20260508024020 | 45 | 320 | 3.5 | 7.0 | 0.00 | 0.00 | 0.00 | 76 | 1010.7 |
| 20260508023015 | 46 | 11 | 1.7 | 4.3 | 0.00 | 0.00 | 0.00 | 70 | 1010.4 |
| 20260508022013 | 46 | 77 | 3.5 | 4.3 | 0.00 | 0.00 | 0.00 | 70 | 1010.5 |
| 20260508021010 | 46 | 41 | 1.7 | 3.5 | 0.00 | 0.00 | 0.00 | 67 | 1010.5 |
| 20260508020006 | 47 | 10 | 1.7 | 3.5 | 0.00 | 0.00 | 0.00 | 68 | 1010.3 |
| 20260508015000 | 47 | 57 | 3.5 | 5.2 | 0.00 | 0.00 | 0.00 | 67 | 1010.3 |
| 20260508013958 | 47 | 329 | 1.7 | 3.5 | 0.00 | 0.00 | 0.00 | 66 | 1010.1 |
| 20260508012958 | 47 | 333 | 1.7 | 2.6 | 0.00 | 0.00 | 0.00 | 66 | 1010.4 |
| 20260508011958 | 47 | 60 | 1.7 | 2.6 | 0.00 | 0.00 | 0.00 | 67 | 1009.9 |
| 20260508010953 | 47 | 340 | 0.9 | 2.6 | 0.00 | 0.00 | 0.00 | 65 | 1010.0 |
| 20260508005953 | 48 | 32 | 2.6 | 3.5 | 0.00 | 0.00 | 0.00 | 64 | 1009.8 |
| 20260508004952 | 48 | 69 | 2.6 | 3.5 | 0.00 | 0.00 | 0.00 | 68 | 1009.7 |
| 20260508003951 | 48 | 28 | 1.7 | 2.6 | 0.00 | 0.00 | 0.00 | 62 | 1009.8 |
| 20260508002951 | 48 | 34 | 1.7 | 2.6 | 0.00 | 0.00 | 0.00 | 61 | 1009.7 |
| 20260508001949 | 48 | 10 | 0.9 | 2.6 | 0.00 | 0.00 | 0.00 | 61 | 1009.3 |
| 20260508000948 | 49 | 29 | 1.7 | 2.6 | 0.00 | 0.00 | 0.00 | 59 | 1009.2 |
| 20260507235947 | 49 | 14 | 3.5 | 4.3 | 0.00 | 0.00 | 0.00 | 58 | 1009.3 |
| 20260507234942 | 50 | 333 | 2.6 | 4.3 | 0.00 | 0.00 | 0.00 | 58 | 1009.4 |
| 20260507233941 | 50 | 340 | 2.6 | 4.3 | 0.00 | 0.00 | 0.00 | 59 | 1009.4 |
| 20260507232936 | 50 | 18 | 1.7 | 4.3 | 0.00 | 0.00 | 0.00 | 57 | 1008.9 |
| 20260507231935 | 50 | 348 | 3.5 | 3.5 | 0.00 | 0.00 | 0.00 | 55 | 1009.1 |
| 20260507230934 | 51 | 2 | 3.5 | 4.3 | 0.00 | 0.00 | 0.00 | 54 | 1009.3 |
| 20260507225932 | 51 | 13 | 1.7 | 4.3 | 0.00 | 0.00 | 0.00 | 53 | 1008.8 |
| 20260507224930 | 51 | 32 | 2.6 | 5.2 | 0.00 | 0.00 | 0.00 | 54 | 1009.1 |
| 20260507223929 | 51 | 1 | 0.9 | 3.5 | 0.00 | 0.00 | 0.00 | 54 | 1008.9 |
| 20260507222928 | 51 | 0 | 2.6 | 3.5 | 0.00 | 0.00 | 0.00 | 56 | 1009.0 |
| 20260507221927 | 51 | 354 | 3.5 | 5.2 | 0.00 | 0.00 | 0.00 | 53 | 1008.9 |
| 20260507220926 | 51 | 350 | 1.7 | 4.3 | 0.00 | 0.00 | 0.00 | 56 | 1009.0 |
| 20260507215926 | 52 | 47 | 2.6 | 6.1 | 0.00 | 0.00 | 0.00 | 52 | 1009.0 |
| 20260507214926 | 52 | 43 | 3.5 | 4.3 | 0.00 | 0.00 | 0.00 | 53 | 1008.8 |
| 20260507213925 | 52 | 31 | 3.5 | 6.1 | 0.00 | 0.00 | 0.00 | 55 | 1009.1 |
| 20260507212925 | 52 | 29 | 7.8 | 8.7 | 0.00 | 0.00 | 0.00 | 56 | 1009.1 |
| 20260507211924 | 53 | 352 | 7.0 | 7.8 | 0.00 | 0.00 | 0.00 | 50 | 1008.8 |